Location: Bloomsdale Volunteer Fire Department
(38.0110°N, 90.2222°W)
Time: 10:28:34
(UTC+00:00)

Envisat - Visible Passes

Search period start: 05 October 2024 00:00
Search period end: 15 October 2024 00:00
Orbit: 762 x 764 km, 98.3° (Epoch: 04 October)

Date Brightness Start Highest point End Pass type
(mag) Time Alt. Az. Time Alt. Az. Time Alt. Az.
05 Oct 5.8 08:16:11 10° NE 08:16:53 13° NE 08:16:53 13° NE visible
05 Oct 4.5 09:54:48 10° N 09:57:02 23° NNW 09:57:02 23° NNW visible
06 Oct 4.7 09:16:56 10° N 09:18:59 25° N 09:18:59 25° N visible
07 Oct 5.4 08:39:40 10° NNE 08:40:56 17° NNE 08:40:56 17° NNE visible
07 Oct 4.8 10:19:27 10° NNW 10:21:04 16° NW 10:21:04 16° NW visible
08 Oct 4.7 09:41:08 10° N 09:43:01 22° N 09:43:01 22° N visible
09 Oct 5.1 09:03:28 10° NNE 09:04:58 20° NNE 09:04:58 20° NNE visible
09 Oct 5.1 10:44:54 10° NW 10:45:07 10° NW 10:45:07 10° NW visible
10 Oct 5.8 08:26:26 10° NNE 08:26:54 12° NE 08:26:54 12° NE visible
10 Oct 4.8 10:05:34 10° NNW 10:07:03 17° NNW 10:07:03 17° NNW visible
11 Oct 5.0 09:27:30 10° N 09:28:59 19° N 09:28:59 19° N visible
12 Oct 5.5 08:50:03 10° NNE 08:50:55 15° NNE 08:50:55 15° NNE visible
12 Oct 5.1 10:30:27 10° NNW 10:31:04 12° NNW 10:31:04 12° NNW visible
13 Oct 5.0 09:51:47 10° N 09:53:00 17° NNW 09:53:00 17° NNW visible
14 Oct 5.3 09:13:57 10° N 09:14:56 16° N 09:14:56 16° N visible
